Weather in San Andres

Colombia     12°34′58″N   81°42′23″W
temp.,
°C
wind,
m/s
gust,
m/s
humid.,
%
clouds,
%
prec.,
mm/h
press.,
hPa
HPBL,
m
20 april, tue
tue2001:00+27e668294 0.1 1011689
04:00+27ene778227 0.0 1010709
07:00+27ene687946 0.0 1012781
10:00+27e788196 0.0 1013737
13:00+27e788242 0.2 1012657
16:00+27e888152 0.4 1010619
19:00+27ene810835 0.8 1011703
22:00+28e9117731 0.0 1013605
21 april, wed
wed2101:00+27ene7979100 0.1 1012598
04:00+27ene8980100 0.3 1011569
07:00+27ene101181100 1.9 1013812
10:00+27ene9118077 0.2 1014956
13:00+27ene910765 0.3 1013926
16:00+27ene9107574 0.0 10111077
19:00+27ene8972100 0.1 10121315
22:00+27ene996999 0.0 10141398
22 april, thu
thu2201:00+27ene787859 0.3 1013770
04:00+27ene997796 0.4 1012966
07:00+27ene9107272 0.4 10131181
10:00+27ne810783 0.1 1015973
13:00+27ene910751 0.6 10131026
16:00+27ene910750 0.0 1011859
19:00+27ene99733 0.0 1012951
22:00+27ene99735 0.0 10141098
23 april, fri
fri2301:00+27ene897099 0.1 10131263
04:00+27ne786885 0.1 10121343
07:00+26ne78740 0.1 1013852
10:00+27ne78773 0.1 1015893
13:00+27ene89769 0.8 10131004
16:00+27ene77720 0.1 1011883
19:00+27ene787511 0.1 1011951
22:00+27ene68762 0.1 1013839
24 april, sat
sat2401:00+27ene67796 0.2 1012797
04:00+27ene78798 0.6 1011815
07:00+27ene677810 0.7 1013815
10:00+27e7875100 0.1 1014812
13:00+27ene6775100 0.1 1012756
16:00+27ene667083 0.0 1010868
19:00+27ene677186 0.0 1011890
22:00+27ene77745 0.0 10131013